Regional Weather Roundup
Issued by NWS Little Rock, AR

Home | Current Version | Previous Version | Text Only | Print | Product List | Glossary Off
Versions: 1 2 3 4 5 6 7 8 9 10 11 12 13 14 15 16 17 18 19 20 21 22 23 24 25 26 27 28 29 30 31

000
ASUS44 KLZK 252105
RWRLZK

WEATHER ROUNDUP FOR ARKANSAS
NATIONAL WEATHER SERVICE LITTLE ROCK AR
400 PM CDT WED APR 25 2018

NOTE: "FAIR" INDICATES FEW OR NO CLOUDS BELOW 12,000 FEET WITH NO
SIGNIFICANT WEATHER AND/OR OBSTRUCTIONS TO VISIBILITY.

ARZ001-003-010-029-252200-
NORTHWEST ARKANSAS

CITY           SKY/WX    TMP DP  RH WIND       PRES   REMARKS
FAYETTEVILLE   LGT RAIN  54  53  97 CALM      30.03F FOG
FORT SMITH     CLOUDY    59  53  80 CALM      30.04F
HARRISON       LGT RAIN  53  51  93 E5        30.04F
BENTONVILLE    LGT RAIN  53  51  93 SE6       30.05F
ROGERS         RAIN      54  52  94 E6        30.03F FOG
SILOAM SPGS    LGT RAIN  54  52  93 CALM      30.04F
HIGHFILL       LGT RAIN  54  50  86 VRB5      30.03F
SPRINGDALE     LGT RAIN  54  54 100 NE5       30.05F FOG
$$

ARZ004-005-016-252200-
NORTH CENTRAL ARKANSAS

CITY           SKY/WX    TMP DP  RH WIND       PRES   REMARKS
BATESVILLE     CLOUDY    57  55  93 CALM      30.03F
FLIPPIN        LGT RAIN  55  54  96 N5        30.05F
MTN HOME       LGT RAIN  54  54 100 CALM      30.03F
$$

ARZ040-041-252200-
WEST CENTRAL ARKANSAS

CITY           SKY/WX    TMP DP  RH WIND       PRES   REMARKS
MENA           CLOUDY    55  55 100 CALM      30.03S
MOUNT IDA      LGT RAIN  55  55 100 CALM      29.99F FOG
$$

ARZ009-017-025-026-028-252200-
NORTHEAST ARKANSAS

CITY           SKY/WX    TMP DP  RH WIND       PRES   REMARKS
CORNING        FAIR      61  52  72 W15       30.02F
JONESBORO      LGT RAIN  58  55  90 CALM      30.04F
NEWPORT        LGT RAIN  58  53  84 N6        30.04F
WALNUT RIDGE   FAIR      60  53  77 W7        30.03F
BLYTHEVILLE    LGT RAIN  61  47  59 W8        30.02S
NW BLYTHEVILLE LGT RAIN  59  50  72 W9G20     30.03R
$$

ARZ022-023-033-042-044-252200-
CENTRAL ARKANSAS

CITY           SKY/WX    TMP DP  RH WIND       PRES   REMARKS
LITTLE ROCK    LGT RAIN  56  55  97 N10       30.03F FOG
N LITTLE ROCK    N/A     54  53  96 N6        29.99F
JACKSONVILLE   LGT RAIN  56  56  99 N3        30.02F
CONWAY         MOCLDY    57  55  94 CALM      30.03F FOG
SEARCY         LGT RAIN  58  57  97 N6        30.04F
HOT SPRINGS    LGT RAIN  58  57  97 SE5       30.02F
RUSSELLVILLE   CLOUDY    56  55  97 S5        30.02F
CLINTON        DRIZZLE   57  54  88 CALM      30.04F
$$

ARZ036-252200-
EAST ARKANSAS

CITY           SKY/WX    TMP DP  RH WIND       PRES   REMARKS
WEST MEMPHIS   LGT RAIN  67  48  50 N14G22    29.99F
$$

ARZ050-053-066-070-073-252200-
SOUTHWEST ARKANSAS

CITY           SKY/WX    TMP DP  RH WIND       PRES   REMARKS
ARKADELPHIA    LGT RAIN  60  57  89 VRB7      30.02F
CAMDEN         CLOUDY    72  57  60 N5        29.98F
TEXARKANA      CLOUDY    62  54  74 NW10      30.03S
EL DORADO      CLOUDY    72  60  66 NW7       29.98F
DE QUEEN       LGT RAIN  57  56  96 SE5       30.00F FOG
$$

ARZ056-057-069-252200-
SOUTHEAST ARKANSAS

CITY           SKY/WX    TMP DP  RH WIND       PRES   REMARKS
PINE BLUFF     CLOUDY    61  55  81 N20G28    30.02R
STUTTGART      LGT RAIN  58  54  86 N17G24    30.03R
MONTICELLO     CLOUDY    75  53  46 CALM      29.98F

$$






USA.gov is the U.S. government's official web portal to all federal, state and local government web resources and services.